User: anonymous   Login
Location: Wallasey
(53.4265°N, 3.0662°W)
Time: 07:52:35
(UTC+01:00)
Language:

CUTE-I - Orbit

View from above orbital plane
View from above orbital plane
View from above satellite
View from above satellite

Ground track
Ground track

The orbit data is extracted from the following two-line orbital elements,

1 27844U 03031E   19236.91142651 +.00000032 +00000-0 +33993-4 0  9998
2 27844 098.6847 244.1205 0009508 189.8561 170.2431 14.22190764837807
Epoch (UTC): 24 August 2019 21:52:27
Eccentricity: 0.0009508
inclination: 98.6847°
perigee height: 811 km
apogee height: 825 km
right ascension of ascending node: 244.1205°
argument of perigee: 189.8561°
revolutions per day: 14.22190764
mean anomaly at epoch: 170.2431°
orbit number at epoch: 83780

The dashed part of the orbit path shows where the satellite is in the earth's shadow,  

DLR